RH
91 89 85 79 62 35 27 20 12 16 21 24 26 28 27 29 30 34 38 40 41 43 46 45 42 40 39 36 35 39 40 43
94 88 71 50 37 26 21 16 13 22 27 28 30 30 31 35 38 40 43 44 45 48 49 46 44 48 47 43 35 40 40 45
80 70 60 51 35 23 15 15 21 27 32 32 35 47 47 49 45 43 45 47 46 46 48 49 52 55 51 45 42 42 38 44
57 46 41 40 31 22 31 29 39 45 51 44 50 47 53 50 53 51 53 52 53 57 59 59 59 57 53 46 44 41 43 41
24 21 22 35 33 37 39 43 48 48 48 52 57 59 69 68 72 78 76 75 77 72 68 65 60 58 52 46 43 42 42 41
27 21 26 39 41 50 48 55 55 62 64 62 65 66 75 79 81 81 84 85 79 77 77 69 63 56 52 48 45 41 39 37
30 29 39 39 48 53 63 63 63 67 73 73 73 77 75 75 82 83 85 84 85 83 77 69 62 57 52 50 45 41 39 37
40 49 50 53 64 68 70 76 78 75 73 73 75 81 77 79 83 86 88 88 88 79 68 61 57 54 51 46 44 42 41 41
52 54 58 63 71 73 81 84 79 78 69 70 73 73 75 84 84 83 89 85 75 62 56 52 51 50 49 45 41 41 40 39
64 68 73 74 73 76 82 77 68 67 63 62 68 70 76 79 74 66 61 56 56 53 51 48 47 46 44 43 39 36 35 38
71 73 75 76 76 77 73 68 66 66 64 64 62 60 56 52 53 51 49 51 51 50 49 49 48 43 38 40 38 34 37 36
74 75 76 81 82 77 73 67 63 59 59 55 48 45 46 49 51 51 53 55 55 54 50 47 41 40 40 41 35 35 33 33
65 73 81 86 80 75 65 57 52 51 49 46 47 50 52 53 57 59 59 59 56 51 48 44 37 34 38 42 41 38 35 39
72 76 82 79 76 63 61 56 53 51 49 51 55 57 59 62 63 63 60 56 51 47 43 41 38 38 39 40 38 32 31 36
68 69 69 66 61 57 52 50 50 52 54 54 58 63 63 61 56 55 52 49 44 40 40 42 36 35 35 38 37 37 36 34
58 56 57 55 51 50 53 58 61 58 60 61 64 63 62 56 53 53 48 41 41 40 40 40 37 40 41 41 41 41 41 39
54 52 49 45 48 51 52 56 60 62 63 63 62 58 56 47 45 39 39 40 42 42 42 41 43 44 43 41 39 43 44 41
49 49 49 48 50 52 56 60 60 65 70 66 62 48 44 43 38 35 35 41 44 42 42 42 43 45 52 44 44 44 40 46
50 51 51 51 54 57 56 59 63 68 80 61 46 45 43 35 35 37 36 40 41 40 39 43 53 56 50 40 45 49 49 49
52 54 53 54 56 56 58 65 71 78 66 44 43 39 34 33 37 39 44 43 42 42 45 56 55 59 50 47 48 51 60 61